Location: *
(51.1248°S, 108.4023°W)
Time: 04:40:34
(UTC+00:00)

Cosmos 2278 Rocket - Pass Details

Date: 29 October 2021
Orbit: 841 x 845 km, 71.0° (Epoch: 01 December)

Event Time Altitude Azimuth Distance (km) Brightness Sun altitude
Exits shadow 05:18:30 46° 43° (NE) 1,139 2.4 -21.9°
Maximum altitude 05:19:17 49° 69° (ENE) 1,092 2.4 -21.9°
Drops below altitude 10° 05:24:47 10° 142° (SE) 2,497 5.0 -22.3°
Sets 05:27:19 0° 147° (SSE) 3,439 5.8 -22.4°
